Regional Weather Roundup
Issued by NWS

Home | Current Version | Previous Version | Graphics & Text | Print | Product List | Glossary On
Versions: 1 2 3 4 5 6 7 8 9 10 11 12 13 14 15 16 17 18 19 20 21 22 23 24 25 26 27 28 29 30 31 32 33 34 35 36 37 38 39 40 41 42 43 44 45 46 47 48 49 50
000
ASUS43 KMPX 310310
RWRMN
WEATHER ROUNDUP FOR MINNESOTA
NATIONAL WEATHER SERVICE TWIN CITIES/CHANHASSEN MN
1000 PM CDT TUE AUG 30 2016


NOTE: "FAIR" INDICATES FEW OR NO CLOUDS BELOW 12,000 FEET WITH NO
SIGNIFICANT WEATHER AND/OR OBSTRUCTIONS TO VISIBILITY. N/A MEANS
CURRENT SKY AND/OR WEATHER CONDITIONS ARE NOT AVAILABLE.

MNZ060>063-068>070-310400-
   Twin Cities Metro

CITY           SKY/WX    TMP DP  RH WIND       PRES   REMARKS
TWIN CITIES    CLEAR     67  55  65 N3        30.17R
ST PAUL        CLEAR     67  58  72 CALM      30.17R
CRYSTAL        CLEAR     63  55  75 CALM      30.16R
BLAINE         CLEAR     64  57  77 CALM      30.17S
LAKEVILLE      CLEAR     61  55  82 CALM      30.17S
EDEN PRAIRIE   CLEAR     68  57  68 NW5       30.16S
LAKEVILLE      CLEAR     61  55  82 CALM      30.17S
SOUTH ST PAUL  CLEAR     67  55  65 CALM      30.17S
LAKE ELMO      FAIR      61  59  94 CALM      30.18S
$$
MNZ001>005-007-008-013>017-022>024-027-028-310400-
   Northwest Minnesota

CITY           SKY/WX    TMP DP  RH WIND       PRES   REMARKS
BEMIDJI        CLEAR     56  53  89 CALM      30.22R
HALLOCK        CLOUDY    61  48  63 N5        30.22R
ROSEAU         PTCLDY    61  52  72 CALM      30.21S
WARROAD        PTCLDY    57  52  82 CALM      30.22R
THIEF RVR FALL CLEAR     61  55  81 CALM      30.23R
CROOKSTON      CLEAR     66  54  63 NE3       30.22R
FOSSTON        CLEAR     54  52  94 CALM      30.23R
DETROIT LAKES  CLEAR     64  59  82 CALM      30.23F
MOORHEAD       PTCLDY    64  55  72 CALM      30.21S
MAHNOMEN       FAIR      62  56  80 CALM      30.22S
$$
MNZ006-009>011-018-025>026-310400-
   North Central Minnesota

CITY           SKY/WX    TMP DP  RH WIND       PRES   REMARKS
BAUDETTE       CLEAR     55  53  93 CALM      30.20R
FLAG ISLAND    CLEAR     66  52  59 N5        30.19S
INTL FALLS     CLEAR     48  46  93 CALM      30.19R
WASKISH        CLEAR     54  52  94 CALM      30.20S
BIG FORK       CLEAR     54  52  94 CALM      30.21R
LONGVILLE      CLEAR     55  55 100 CALM      30.21R
GRAND RAPIDS   CLEAR     56  53  90 CALM      30.22R
ORR            CLEAR     54  48  82 CALM      30.17S
COOK           CLEAR     52  52 100 CALM      30.20S
WALKER         FAIR      55  54  95 CALM      30.22R
$$
MNZ012-019>021-037-310400-
   Northeast Minnesota

CITY           SKY/WX    TMP DP  RH WIND       PRES   REMARKS
DULUTH         CLEAR     60  53  77 N5        30.17S
ELY            CLEAR     54  50  87 CALM      30.18S
HIBBING        CLEAR     49  48  97 CALM      30.19R
EVELETH        CLEAR     60  48  63 N6        30.20S
DULUTH HARBOR  CLEAR     66  59  77 CALM      30.16S
TWO HARBORS    CLEAR     59  54  82 CALM      30.15S
SILVER BAY     CLEAR     55  52  88 CALM      30.15S
GRAND MARAIS     N/A     57  52  83 NW5       30.13R
G MARAIS ARPRT CLEAR     52  46  82 CALM      30.17S
$$
MNZ029>031-032-039>041-046>048-054>057-064-310400-
   West Central Minnesota

CITY           SKY/WX    TMP DP  RH WIND       PRES   REMARKS
FERGUS FALLS   CLEAR     64  55  72 CALM      30.22S
WHEATON        CLEAR     66  57  72 NE3       30.21S
MORRIS         CLOUDY    63  57  82 N3        30.19S
ALEXANDRIA     CLEAR     65  56  72 N6        30.22S
ELBOW LAKE     FAIR      65  57  76 E5        30.21S
WADENA         CLEAR     59  54  82 N2        30.21R
GLENWOOD       CLOUDY    66  57  72 NW5       30.21S
APPLETON       CLOUDY    64  61  88 CALM      30.19R
BENSON         CLOUDY    59  55  88 CALM      30.20R
ORTONVILLE     CLOUDY    66  61  82 CALM      30.20R
MADISON        CLOUDY    66  61  82 CALM      30.20R
WILLMAR        FAIR      64  61  88 CALM      30.22R
$$
MNZ033>034-036-042>043-049>051-058-059-310400-
   Central Minnesota

CITY           SKY/WX    TMP DP  RH WIND       PRES   REMARKS
ST CLOUD       CLEAR     60  60 100 CALM      30.18S
SAUK CENTRE    FAIR      63  58  86 CALM      30.20S
PAYNESVILLE    CLEAR     59  59 100 W3        30.21R
AITKIN         CLEAR     55  50  82 CALM      30.19R
PINE RIVER     CLEAR     57  55  94 CALM      30.24R
BRAINERD       CLEAR     60  58  92 CALM      30.20R
STAPLES        CLEAR     61  55  82 CALM      30.21S
LONG PRAIRIE   FAIR      59  57  94 CALM      30.20F
LITTLE FALLS   CLEAR     59  55  88 CALM      30.20R
LITCHFIELD     CLEAR     64  63  94 CALM      30.20S
BUFFALO        CLEAR     63  57  83 CALM      30.19S
MAPLE LAKE     CLEAR     61  60  96 CALM      30.19S
HUTCHINSON     CLOUDY    63  61  94 CALM      30.20S
$$
MNZ037-044-045-052-053-310400-
   East Central Minnesota

CITY           SKY/WX    TMP DP  RH WIND       PRES   REMARKS
PRINCETON      CLEAR     59  55  88 CALM      30.19S
MORA           CLEAR     55  54  94 CALM      30.20
CAMBRIDGE      CLEAR     63  54  72 CALM      30.16S
RUSH CITY      PTCLDY    60  55  84 CALM      30.18S
MOOSE LAKE     CLEAR     54  52  94 CALM      30.17R
HINCKLEY       FAIR      57  55  94 CALM      30.18R
CLOQUET        CLEAR     57  52  82 CALM      30.18S
MCGREGOR       CLEAR     59  54  82 CALM      30.20R
$$
MNZ071>073-080-081-089-090-097-098-310400-
   Southwest Minnesota

CITY           SKY/WX    TMP DP  RH WIND       PRES   REMARKS
MONTEVIDEO     CLOUDY    66  59  77 CALM      30.21S
GRANITE FALLS  CLOUDY    63  60  91 CALM      30.21S
CANBY          CLOUDY    63  60  88 CALM      30.22R
MARSHALL       CLOUDY    65  61  87 W3        30.21R
REDWOOD FALLS  CLEAR     68  57  68 N3        30.19R
OLIVIA         CLEAR     64  59  82 CALM      30.19S
WINDOM         CLEAR     64  59  82 CALM      30.21S
WORTHINGTON    CLOUDY    65  62  90 CALM      30.22R
JACKSON        CLOUDY    63  59  88 CALM      30.22R
TRACY          CLEAR     66  61  84 CALM      30.21S
SLAYTON        CLEAR     63  61  94 N3        30.23S
$$
MNZ065>067-074>077-082>085-091>093-310400-
   South Central Minnesota

CITY           SKY/WX    TMP DP  RH WIND       PRES   REMARKS
NEW ULM        CLEAR     64  61  88 CALM      30.19S
ST JAMES       CLOUDY    63  61  94 CALM      30.20S
FAIRMONT       CLOUDY    64  61  90 N5        30.20R
GLENCOE        CLEAR     64  62  91 CALM      30.18S
FARIBAULT      CLEAR     63  57  82 CALM      30.18F
OWATONNA       CLOUDY    63  57  82 CALM      30.18S
WASECA         CLEAR     59  55  88 NW6       30.19F
ALBERT LEA     CLOUDY    64  57  77 N3        30.18S
$$
MNZ078>079-086>088-094>096-310400-
   Southeast Minnesota

CITY           SKY/WX    TMP DP  RH WIND       PRES   REMARKS
ROCHESTER      CLOUDY    62  58  86 NW6       30.18R
RED WING       CLEAR     63  59  88 CALM      30.15R
STANTON        CLEAR     61  59  94 CALM      30.16S
DODGE CENTER   CLOUDY    63  57  82 NW5       30.18S
WINONA         PTCLDY    66  63  88 CALM      30.14S
AUSTIN         PTCLDY    64  59  82 N3        30.17S
PRESTON        PTCLDY    63  58  84 N5        30.17R
$$
ABBREVIATIONS USED IN REMARKS
   TC - TEMPERATURES IN CELSIUS
  WCI - WIND CHILL INDEX
   HX - HEAT INDEX
  VSB - VISIBILITY
$$




USA.gov is the U.S. government's official web portal to all federal, state and local government web resources and services.